TITAN 3C TRANSTAGE DEB, 38700

Orbit data source: Space-Track

TITAN 3C TRANSTAGE DEB, 38700 is space debris in GEO originally from a launch on Thu, 26 Sep 1968 UTC launched from the Air Force Eastern Test Range (AFETR). Debris objects in space refer to the collection of defunct objects orbiting the Earth. Examples of debris include non-operational satellites, rocket bodies, and fragments generated from explosions, collisions, or faulty payload assembly.

Not visible in the next 10 days
Identifier
38700, 1968-081AA
Orbit
GEO
Last TLE update
1 day ago
Origin
Manufacturer
Unknown
Mission
Spacecraft
Bus & Motor
Unknown
Mass
Unknown
Launch date (UTC)
1968-09-26 (57 years ago)
Launch vehicle
Unknown
Launch site
Air Force Eastern Test Range (AFETR)
Object type
Payload
Rocket body
Debris
Shape & HBR
Unknown
Radar Cross Section
Small (<0.1 m²)

Expand to show TLE details & history

TLE from 1 day ago
0 TITAN 3C TRANSTAGE DEB
1 38700U 68081AA  25199.04561974 -.00000253  00000-0  00000+0 0  9993
2 38700   1.5025  57.3246 0119799 210.8498 148.3156  1.02731240 61272
Epoch: 2025-07-18T01:05Z
TLE epoch observation values (Epoch: 2025-07-18T01:05:41.545Z)
Latitude
-0.00001°
Longitude
104.6848°
Altitude
35,535.289 km
Speed
3.068 km/s
True Right ascension
03h 48m 50s
True Declination
0° 00' 00"
Sunlit
Object was in daylight at epoch
Visualization orbit readout
Latitude
1.16396°
Longitude
154.40572°
Altitude
35,582.207 km
Speed
3.065 km/s
Apparent Right ascension
06h 52m 29s
Apparent Declination
-4° 00' 47"
Sunlit
Object is in daylight
Visualization observer readout
Local Sidereal Time
16:33:50
Azimuth
309.805° NW
Elevation
-42.392°
Doppler factor
1
Orbital elements
Apogee altitude
35,609.047 km
Perigee altitude
34,614.951 km
Semi-major axis
41,490.136 km
Eccentricity
0.01198
Inclination
1.5025°
RAAN
57.3246°
Arg. of periapsis
210.8498°
True anomaly
149.02755°
Mean anomaly
148.3156°
Eccentric anomaly
148.67248°
Mean motion
0.25682 °/min
Orbital period
1,401.77 mins
BSTAR
0
Loading maneuver chart data...
Loading SW <> Apogee altitude chart data...
|